GEFSCGP_850_meantemp_018.txt.gz
Temperature
22 23 23 24 24 24 24 25 25 26 26 26 26 27 27 28 27 27 28 28 28 27 25 23 23 23 23 22 21 21 20 19 19 19 18 18 18 18 17 17 17 17 17 16
22 22 22 22 22 22 23 23 24 25 25 25 26 26 27 28 28 28 28 28 27 26 25 23 22 22 22 22 21 21 20 19 19 18 18 18 18 18 17 17 17 17 17 16
21 22 21 21 21 21 21 22 22 22 24 25 25 25 27 28 28 27 26 26 26 25 24 23 22 22 22 21 21 21 20 20 19 18 18 18 18 18 18 17 17 17 17 16
22 22 21 21 21 21 20 21 21 21 22 23 24 24 26 27 27 28 27 26 24 23 23 22 22 21 21 20 21 20 20 19 19 18 17 17 17 17 17 17 17 17 17 16
23 23 22 22 22 21 20 21 21 20 21 22 24 24 26 27 26 27 27 25 24 23 23 22 21 21 20 20 20 19 19 19 18 17 17 17 17 17 16 16 16 16 16 16
24 24 23 23 23 22 21 20 20 21 22 22 24 24 25 27 26 26 26 24 23 22 22 22 21 21 20 20 20 20 19 19 18 17 17 16 16 16 16 16 16 16 16 16
23 24 24 23 23 23 23 22 21 21 22 23 24 24 25 26 26 25 25 24 23 22 22 22 21 20 20 20 19 19 19 18 18 17 17 16 16 16 15 15 15 15 16 16
22 23 24 24 24 23 23 23 22 21 22 23 23 24 25 26 25 24 24 23 23 22 22 21 21 21 20 19 19 19 18 18 17 17 16 16 16 15 15 15 15 15 15 15
22 23 24 24 24 24 24 23 24 23 23 22 24 24 26 26 26 25 24 23 23 23 22 22 21 21 20 19 19 19 18 17 17 17 16 16 16 15 15 15 15 15 15 15
21 21 23 23 23 23 24 24 23 23 22 22 23 24 24 25 25 25 25 25 24 23 23 23 22 21 20 20 19 19 18 18 17 17 16 16 16 15 15 15 15 15 14 14
20 20 22 23 23 23 22 22 23 23 22 22 22 23 25 24 24 24 25 24 24 23 23 23 22 21 21 20 20 19 19 18 17 17 16 16 16 15 15 15 15 15 14 14
20 19 20 21 22 21 21 22 22 21 21 21 20 22 24 24 24 24 24 23 23 22 22 22 22 21 21 21 20 20 19 18 18 17 16 16 16 16 15 15 15 15 14 14
19 18 18 20 20 20 20 20 20 20 20 20 20 22 24 24 24 23 23 23 23 22 22 22 22 21 21 21 20 20 19 19 18 17 17 16 16 16 16 15 15 15 15 14
18 17 17 16 17 18 19 19 19 19 18 19 20 21 22 22 22 22 21 21 22 22 22 22 21 21 21 21 20 20 19 19 18 17 17 16 16 16 16 15 15 15 15 15
18 17 17 17 18 18 18 19 19 19 19 19 20 20 21 20 20 20 20 20 21 21 21 21 21 21 20 20 20 19 19 19 18 18 17 16 16 16 15 15 15 15 15 14
17 16 17 17 18 18 18 19 19 19 19 19 19 20 20 18 18 19 20 20 20 21 21 21 21 20 20 19 19 19 19 19 18 18 17 16 16 16 16 15 15 15 15 14
16 16 16 17 18 18 18 18 18 18 18 18 17 17 17 18 18 19 19 19 20 20 20 19 19 19 19 19 18 18 18 18 18 17 17 16 16 16 16 15 15 15 15 14
15 16 16 16 17 16 16 17 17 17 17 17 17 17 17 17 18 19 17 17 18 18 18 18 18 18 18 18 18 18 18 18 17 17 16 16 16 16 16 15 15 15 14 14
15 15 15 15 16 17 15 14 14 16 16 16 16 16 16 16 21 21 17 15 15 16 16 17 17 18 18 18 18 18 17 17 16 16 15 15 15 15 15 15 15 15 14 14
15 14 13 13 13 13 10 11 13 16 15 14 15 15 15 16 19 19 16 15 15 15 16 17 17 17 18 17 17 16 16 15 15 14 14 14 14 14 14 14 14 14 14 14
15 14 13 11 11 10 8 9 13 13 11 12 13 14 14 15 15 15 15 15 14 15 15 15 16 17 16 15 15 15 14 13 13 13 13 13 13 13 13 14 14 14 14 14
13 13 12 11 10 9 8 9 9 9 10 11 13 13 13 13 14 14 15 14 14 15 15 15 15 15 14 14 14 13 13 12 12 12 12 12 12 12 12 13 13 13 13 13
13 12 12 11 11 10 9 8 9 9 10 11 12 12 13 13 14 14 15 15 15 15 15 14 14 14 13 13 13 13 12 12 12 11 11 11 11 12 12 12 12 12 12 12
13 13 12 12 12 11 10 9 9 9 9 10 11 12 13 13 13 14 15 15 15 15 15 14 14 14 13 13 13 13 12 12 11 11 11 11 11 11 11 11 11 11 11 11
11 11 11 11 12 11 10 10 9 9 9 10 10 11 12 13 13 14 15 15 15 15 15 14 14 14 13 13 13 13 13 12 11 11 11 11 11 11 11 11 11 11 11 11
10 9 9 9 10 9 9 9 9 8 9 9 10 11 12 13 13 14 14 15 15 15 15 15 14 14 14 13 13 13 13 12 11 11 11 11 11 11 11 11 11 11 11 11

GEFSCGP_850_meantemp_024.txt.gz
Temperature
26 26 24 25 24 24 25 25 26 25 24 24 25 26 28 29 29 29 29 29 29 29 29 28 28 27 26 25 25 24 24 23 22 21 20 20 19 19 19 18 18 18 18 18
25 24 25 25 25 25 25 24 24 24 24 24 24 25 27 28 28 29 29 29 29 30 29 28 27 26 25 24 24 23 23 22 21 21 20 20 19 19 18 18 18 18 18 18
24 25 25 24 24 24 23 22 22 21 22 23 23 23 25 27 28 28 29 29 29 29 28 27 26 25 24 23 23 22 22 21 21 20 20 19 18 18 18 18 18 18 18 17
26 26 25 24 24 24 23 23 21 21 20 20 20 20 23 25 25 27 28 28 28 28 28 26 25 24 23 22 22 21 21 21 20 20 19 18 18 18 18 18 18 18 18 17
26 26 25 25 25 25 24 23 22 21 20 19 20 19 21 24 24 26 27 28 28 28 27 25 24 23 23 22 21 21 21 20 20 19 18 18 18 18 18 17 17 17 17 17
27 28 27 26 26 25 24 23 22 21 20 20 21 21 21 23 24 25 27 27 27 27 26 25 24 23 22 21 21 21 20 20 19 19 18 18 18 17 17 17 17 17 17 17
26 27 28 27 25 25 24 23 21 20 19 20 22 22 22 24 25 26 26 27 27 26 25 24 23 22 22 21 21 20 20 20 19 19 19 19 18 18 17 17 17 17 16 16
24 25 27 26 25 25 24 24 21 20 20 20 21 21 24 25 26 26 26 26 25 25 24 24 23 22 21 21 21 20 20 20 19 19 19 19 19 18 17 17 17 16 16 16
22 23 25 26 26 25 24 24 25 23 22 21 22 22 24 24 25 25 26 25 24 24 24 23 22 22 21 21 21 20 20 20 19 19 19 19 19 18 17 17 16 16 16 16
22 21 23 24 25 25 24 24 23 21 19 20 22 22 19 20 20 21 23 24 24 24 23 23 23 22 22 21 21 20 20 20 19 19 19 18 18 18 17 17 16 16 15 15
22 20 21 22 22 22 21 21 21 21 20 20 19 19 19 16 16 17 19 21 22 22 22 23 23 23 22 22 21 21 20 20 19 19 19 18 18 17 17 16 16 16 15 15
21 20 19 20 21 19 19 17 17 17 18 19 18 18 18 17 17 18 19 20 22 22 23 23 23 23 23 22 22 21 20 20 20 19 19 18 18 17 17 16 16 16 15 15
19 18 17 18 19 17 15 15 17 18 18 17 17 17 18 17 18 18 19 20 21 22 23 23 23 23 23 23 22 21 20 20 19 19 19 18 18 17 17 16 16 16 16 15
19 18 17 16 16 16 15 16 17 18 17 17 17 17 16 17 18 19 20 20 21 22 22 23 23 23 23 23 22 22 21 20 19 19 19 18 18 17 17 16 16 16 16 16
19 18 18 18 18 18 17 16 17 18 18 17 16 16 16 17 18 19 19 20 21 21 22 22 23 23 23 22 22 22 21 20 20 19 19 18 18 17 17 16 16 16 16 16
19 18 18 18 18 18 16 14 15 16 16 16 16 15 17 18 18 18 18 19 19 20 21 21 22 22 22 21 21 21 21 20 20 19 18 18 18 17 17 16 16 16 16 15
18 17 16 16 17 18 13 10 11 13 14 14 14 15 17 17 18 18 17 17 18 18 18 19 19 20 20 20 20 20 19 19 19 19 18 18 17 17 16 16 16 16 15 15
18 17 16 15 16 13 10 10 10 11 12 13 13 15 16 16 17 17 17 17 17 17 17 17 18 18 19 19 19 19 18 18 18 18 17 17 16 16 15 15 15 15 15 15
19 17 15 14 14 12 10 10 10 10 11 11 12 13 14 15 17 17 16 16 16 16 16 17 17 17 17 18 18 18 17 17 17 16 16 15 15 15 15 14 14 14 15 15
18 17 16 14 13 11 10 11 10 11 11 11 10 12 13 14 14 15 16 16 16 16 16 16 16 16 16 16 16 16 15 15 14 14 14 14 14 14 13 13 13 14 14 14
16 16 15 14 13 11 11 11 11 11 10 9 10 11 12 13 14 15 16 16 16 16 16 16 15 15 16 15 15 15 14 13 13 13 13 13 13 13 13 13 13 13 13 13
15 14 14 13 12 11 12 12 11 10 10 10 10 11 12 12 13 14 15 16 17 16 16 15 15 15 15 15 14 14 13 13 13 12 12 12 12 12 12 12 12 12 12 13
15 14 14 13 13 13 13 12 11 11 10 10 10 11 11 12 13 14 15 16 17 16 16 15 15 15 15 14 14 13 13 13 13 12 12 12 12 12 12 11 11 11 11 12
15 15 14 14 14 13 13 12 12 11 11 11 11 11 12 12 13 14 15 16 17 17 16 16 15 15 15 14 14 13 13 13 13 13 12 12 12 11 11 11 11 11 11 11
14 14 13 13 14 13 13 12 11 11 11 11 11 11 12 12 13 14 15 16 16 17 16 16 16 16 15 15 14 14 13 13 13 13 13 12 12 11 11 11 11 11 11 11
15 14 13 13 13 12 12 12 12 12 11 11 11 12 12 13 14 14 15 16 16 17 17 16 16 16 16 15 14 14 13 13 13 13 12 12 12 11 11 11 11 11 11 11

GEFSCGP_850_meantemp_030.txt.gz
Temperature
23 20 20 20 20 20 20 20 20 20 20 20 20 20 20 21 21 22 23 24 25 26 26 26 26 26 25 25 24 24 23 22 22 21 21 20 20 20 19 19 19 19 18 18
20 20 21 22 21 21 21 20 20 20 20 21 19 20 20 20 21 22 23 23 25 25 26 26 26 26 25 25 24 24 23 23 22 21 21 21 20 20 19 19 19 18 18 18
21 21 22 23 22 21 21 20 20 19 19 20 19 18 19 20 21 22 22 23 24 25 25 26 26 26 25 25 24 24 23 22 22 21 21 20 19 19 19 19 18 18 18 18
21 22 22 22 22 21 20 20 20 19 18 17 18 16 17 18 18 19 20 22 23 25 25 25 25 25 25 24 24 23 23 22 22 21 20 20 20 19 19 19 18 18 17 17
21 22 22 21 22 22 20 20 19 19 17 16 17 16 16 16 17 18 19 20 22 24 24 24 24 24 23 23 23 22 22 22 21 21 20 20 19 19 18 18 18 18 17 17
21 22 22 21 22 22 20 19 18 16 15 16 16 16 16 15 16 16 17 18 19 21 22 22 22 22 22 22 22 22 22 21 21 21 20 20 19 19 18 18 18 18 17 17
19 20 21 21 20 20 19 17 16 16 15 15 17 17 15 15 16 16 16 16 17 19 20 21 21 22 22 22 22 21 21 21 21 21 20 19 19 18 18 18 18 17 17 17
17 17 19 20 20 19 18 17 16 16 15 16 17 16 15 16 16 16 16 16 16 17 18 19 20 21 22 22 22 22 22 22 21 20 20 19 19 18 18 18 17 17 17 17
16 17 19 20 19 19 17 16 16 15 16 16 16 16 15 16 15 16 16 15 15 16 17 17 18 19 21 21 21 22 21 21 21 20 19 19 18 18 18 17 17 17 17 16
17 16 16 18 18 17 16 15 13 14 15 15 15 15 14 14 14 15 15 15 15 16 16 17 18 18 20 20 21 21 21 21 20 20 19 19 18 18 18 17 17 17 17 16
15 14 14 15 15 15 14 14 13 13 13 14 14 14 14 13 14 14 15 15 15 16 16 17 18 18 19 20 20 20 20 20 20 20 19 19 18 18 18 18 17 17 17 16
15 12 12 14 15 16 15 13 12 12 13 13 13 13 13 13 14 14 14 15 16 16 17 17 18 19 19 20 20 20 20 20 20 19 19 18 18 18 18 18 17 17 16 16
15 12 11 12 13 14 14 13 13 12 12 12 13 13 13 13 14 14 14 15 15 16 17 18 19 19 19 20 20 20 20 20 20 19 19 18 18 18 18 18 17 17 16 16
15 12 12 12 12 12 12 12 13 12 12 12 13 12 13 13 13 14 14 14 15 15 15 17 18 19 19 19 19 19 19 19 19 19 19 18 18 18 17 17 17 17 16 16
13 13 14 13 12 12 11 11 12 12 12 12 12 12 12 12 13 13 14 14 14 14 15 16 17 18 18 19 19 19 19 19 18 18 18 17 17 17 17 17 17 16 16 16
12 13 13 12 12 12 11 10 11 11 11 12 12 11 12 12 13 13 13 13 13 14 14 15 16 17 17 17 18 18 18 18 18 17 17 17 16 16 16 16 16 16 16 16
12 12 11 11 12 12 10 9 9 10 10 11 10 10 11 12 12 13 13 13 13 14 14 15 15 16 16 16 17 17 17 17 17 17 16 16 16 16 16 16 16 16 15 15
12 11 10 10 11 10 9 10 9 10 10 10 10 11 11 11 12 13 13 13 13 14 15 15 15 15 15 15 16 16 16 16 15 15 15 15 15 15 15 15 15 15 15 15
11 11 10 9 10 10 10 11 10 9 10 10 10 10 10 11 12 13 13 13 14 14 15 15 15 15 15 15 15 15 15 15 15 14 14 14 14 14 14 14 14 14 14 14
11 10 9 9 10 9 10 11 10 10 10 10 9 10 10 10 10 11 13 14 14 15 15 15 15 15 15 15 14 14 14 14 13 13 13 13 13 13 13 13 13 13 13 13
10 9 8 9 9 9 10 11 11 10 9 10 10 10 10 10 10 11 13 14 14 15 15 15 15 15 15 14 14 14 13 13 13 12 12 12 12 12 12 12 12 12 12 12
10 9 9 8 9 9 11 11 10 9 11 10 11 11 11 11 12 12 13 14 15 15 15 15 15 15 14 14 14 14 13 13 12 12 12 12 12 12 12 12 12 12 12 12
10 10 9 9 9 11 12 11 11 11 11 11 11 11 11 11 12 13 14 14 15 15 15 15 15 15 15 14 14 14 13 13 13 12 12 12 12 12 11 11 11 12 12 12
11 11 9 10 10 11 11 11 11 11 11 11 11 12 12 12 12 13 14 14 15 15 15 15 15 15 15 15 14 14 13 13 13 12 12 12 11 11 11 11 11 11 12 12
10 11 9 9 11 11 12 12 12 12 12 12 12 12 12 12 12 13 13 14 15 15 16 16 15 15 15 15 14 14 13 13 12 12 12 12 11 11 11 11 11 11 11 11
11 10 9 9 11 11 12 12 12 12 12 12 12 12 12 12 12 13 14 14 15 15 15 16 16 15 15 15 15 14 14 13 13 12 12 12 11 11 11 11 11 11 10 10

GEFSCGP_850_meantemp_036.txt.gz
Temperature
21 19 19 20 20 20 20 19 19 19 20 20 19 18 18 18 17 17 17 18 18 20 21 22 23 23 23 23 23 23 23 22 22 21 21 20 20 20 19 19 19 18 18 18
19 20 20 20 20 20 19 19 19 19 19 20 18 17 17 17 16 16 16 16 16 18 20 22 23 23 23 24 24 24 23 23 22 22 21 21 20 20 19 19 19 18 18 18
20 20 20 20 20 19 19 18 19 19 18 18 18 17 16 16 16 16 16 15 15 16 18 21 22 23 23 24 24 24 23 23 22 22 21 20 20 20 19 19 19 18 18 18
20 19 19 19 19 19 17 18 18 18 17 16 17 16 16 14 14 15 15 15 15 15 17 19 21 22 22 23 23 23 22 22 22 21 20 20 20 20 19 19 18 18 18 17
19 18 18 18 18 18 18 17 17 17 16 15 15 15 14 13 13 14 15 15 14 15 16 18 19 20 21 21 21 21 21 20 20 20 20 19 19 19 19 18 18 18 17 17
17 18 18 18 18 18 17 16 15 13 14 15 16 15 14 13 13 14 14 14 14 14 16 17 18 19 19 20 20 20 19 19 19 19 19 18 18 18 18 18 18 17 17 17
15 17 17 17 16 16 15 14 14 14 13 14 15 14 14 14 14 14 14 14 14 14 15 16 16 17 17 17 18 18 18 18 18 18 18 18 18 18 18 17 17 17 17 17
14 15 16 16 15 15 15 14 14 14 14 14 15 14 14 14 14 14 14 14 14 14 14 15 15 16 16 16 17 17 17 17 17 17 18 18 18 18 18 17 17 17 17 16
14 14 15 16 15 15 14 13 13 13 13 13 14 14 14 14 13 13 13 13 13 13 14 14 15 15 16 16 16 16 16 17 17 17 18 18 18 18 17 17 17 17 16 16
15 14 14 14 15 14 13 12 11 12 12 13 13 13 12 12 12 12 13 13 13 13 14 14 15 15 16 16 16 16 16 17 17 18 18 18 18 17 17 17 17 16 16 16
14 13 12 13 12 12 12 11 11 10 11 12 13 13 12 11 12 12 12 12 12 12 13 14 14 15 15 16 16 16 17 17 17 17 18 18 18 17 17 17 16 16 16 16
12 10 11 12 12 12 12 11 10 10 11 11 12 12 12 11 11 12 12 12 12 12 13 14 14 15 15 16 16 17 17 17 17 17 17 17 17 17 17 17 16 16 16 16
12 10 10 11 11 11 11 11 11 11 11 11 11 11 12 11 11 11 11 11 11 12 13 13 14 14 15 16 16 17 17 17 17 17 17 17 17 17 17 17 16 16 16 16
12 10 10 10 10 10 10 11 11 11 11 11 11 11 11 11 11 11 11 11 11 12 12 13 13 14 15 15 16 17 17 17 17 17 17 17 17 17 17 17 16 16 16 16
11 10 10 10 11 11 10 10 11 11 11 11 11 11 10 10 10 10 10 11 11 11 12 12 13 13 14 15 15 16 16 17 17 17 17 17 16 16 16 16 16 16 16 16
10 10 10 10 11 11 10 10 10 10 10 11 11 10 10 10 10 11 10 10 11 11 12 13 13 13 14 14 15 15 16 16 16 16 16 16 16 16 16 16 16 16 16 16
9 10 10 9 10 11 10 9 10 10 10 9 9 9 10 10 10 10 11 10 11 12 12 13 13 13 13 14 14 14 14 15 15 15 15 15 15 15 15 15 15 15 15 15
10 8 7 9 10 10 10 10 10 10 10 10 10 10 10 9 10 12 11 11 12 12 13 13 13 13 13 13 13 13 13 14 14 14 14 14 14 14 14 14 14 14 15 14
8 8 8 8 9 10 10 11 10 9 10 10 9 9 10 10 12 12 12 12 12 13 13 13 13 13 13 13 13 13 13 13 13 13 13 13 13 13 13 13 13 13 13 13
8 7 7 8 9 9 10 10 10 9 10 10 9 9 9 9 9 10 12 13 13 14 14 14 14 14 13 13 13 13 12 12 12 12 12 12 12 12 12 12 12 12 12 12
9 7 7 8 8 9 10 10 10 9 10 10 10 10 10 9 9 11 12 13 13 14 14 14 14 14 14 13 13 13 12 12 12 12 12 12 12 12 11 11 11 12 12 12
9 8 7 7 8 9 11 10 9 9 11 11 11 11 10 11 12 12 13 13 14 14 14 14 14 14 14 14 13 13 12 12 12 12 11 11 11 11 11 11 11 11 12 12
8 8 7 7 8 10 11 11 11 11 11 11 11 11 11 11 12 12 13 13 14 14 15 15 15 14 14 14 14 13 13 12 12 12 11 11 11 11 11 11 11 11 11 11
8 8 7 8 8 10 11 11 11 11 11 11 11 11 11 11 12 12 13 13 14 14 15 15 15 15 15 14 14 14 13 13 12 12 11 11 11 11 11 11 11 11 11 11
8 7 7 8 9 10 11 11 11 11 11 11 11 11 11 12 12 12 13 13 14 14 15 15 15 15 15 15 14 14 13 13 12 12 12 11 11 11 11 11 10 10 10 10
8 8 8 8 10 10 11 12 11 11 11 11 11 11 11 11 12 12 13 13 14 14 15 15 15 15 15 15 15 14 14 13 13 12 12 11 11 11 11 10 10 10 10 10

GEFSCGP_850_meantemp_042.txt.gz
Temperature
25 26 25 25 24 25 25 25 25 25 24 24 24 23 22 21 21 20 20 20 20 19 19 19 19 20 20 21 22 22 21 21 20 20 20 19 19 19 18 18 18 18 17 17
26 24 24 24 24 24 24 24 25 24 23 24 24 23 22 21 20 19 19 19 19 18 18 18 18 19 19 20 21 21 21 21 21 20 20 20 19 19 18 18 18 18 18 17
24 23 23 23 23 24 24 23 23 23 23 23 23 23 22 21 20 20 19 18 18 17 17 17 17 18 19 19 20 21 21 21 21 20 20 20 19 19 19 18 18 18 18 18
23 23 23 23 22 22 23 22 22 22 23 23 23 23 23 21 21 20 19 18 18 17 17 17 16 17 17 18 19 20 21 21 20 20 19 20 19 18 18 17 17 18 18 18
22 22 22 21 21 21 21 21 21 22 22 23 23 22 23 21 20 19 19 18 17 16 16 16 16 16 16 17 18 19 20 20 19 19 19 19 18 17 17 17 17 17 17 17
21 21 21 20 21 20 21 21 22 22 22 21 22 22 20 18 17 18 18 17 16 16 16 15 15 15 15 16 17 17 18 18 18 18 18 17 17 16 16 16 16 16 17 17
21 20 20 20 21 21 21 20 21 21 20 21 22 21 17 16 17 17 16 16 15 15 15 15 15 15 15 15 16 16 16 17 17 17 17 16 16 16 16 16 16 16 16 17
21 20 19 19 19 19 19 19 18 18 19 19 19 18 15 16 16 16 15 15 15 14 14 14 14 14 14 15 15 15 15 16 16 16 16 16 16 16 16 16 16 16 16 16
20 19 19 18 18 18 18 18 18 17 18 18 18 17 16 16 16 15 15 14 14 13 13 13 14 14 14 14 14 14 15 15 15 15 15 15 15 15 16 16 16 16 16 16
20 19 18 18 19 18 17 17 17 17 16 16 17 15 13 14 13 14 13 13 12 13 13 13 13 13 13 14 14 14 14 15 15 15 15 15 15 16 16 16 16 16 16 16
19 19 18 17 16 16 16 16 16 16 16 15 15 13 12 12 12 12 12 11 11 12 12 12 13 13 13 14 14 14 14 14 14 14 15 15 15 15 16 16 16 16 16 16
18 19 18 16 16 16 15 14 14 14 15 15 13 12 11 11 11 11 11 11 11 11 12 12 12 13 13 13 14 14 14 14 14 15 15 15 15 15 15 15 15 16 15 15
18 18 18 17 16 15 14 14 14 14 14 13 13 11 12 11 11 11 10 10 11 11 11 12 12 12 13 13 13 14 14 14 15 15 15 15 15 15 15 15 16 15 15 15
17 17 17 15 14 13 13 14 14 14 13 12 12 11 11 11 11 11 11 11 11 11 11 11 12 12 12 13 13 13 14 14 14 14 14 14 15 15 15 15 15 15 15 15
18 17 16 15 14 14 13 13 14 13 13 12 12 12 11 11 11 11 12 12 12 12 12 12 12 12 12 12 12 13 13 13 13 14 14 14 14 14 14 15 15 15 15 15
17 17 16 15 14 14 14 13 13 13 13 13 13 12 12 12 12 13 13 12 13 12 12 12 12 12 12 12 12 12 12 13 13 13 13 13 13 14 14 14 14 14 15 15
17 17 17 16 15 15 15 14 13 13 13 13 13 13 13 14 13 13 13 13 13 12 12 12 12 12 12 12 12 12 12 12 12 12 12 13 13 13 13 13 13 14 14 14
17 17 17 17 16 15 15 14 13 13 14 14 14 14 13 13 13 13 13 13 13 13 13 13 13 12 12 12 12 12 12 11 12 12 12 12 12 12 12 12 13 13 13 13
16 16 16 17 17 16 15 14 14 14 15 14 14 14 14 14 15 15 13 12 12 12 13 13 13 13 13 12 12 12 12 12 11 11 11 11 12 12 12 12 12 12 12 12
15 16 17 16 17 16 16 15 14 14 15 15 14 14 14 15 17 16 13 12 13 13 13 13 13 13 13 13 12 13 12 12 11 11 11 11 11 12 12 12 12 12 12 12
16 16 16 17 17 17 16 14 13 15 16 14 14 13 14 14 14 13 13 12 13 13 13 14 14 14 13 13 13 13 12 12 11 11 11 11 11 11 12 12 12 12 12 12
17 17 17 16 17 16 14 14 15 16 14 13 13 13 13 13 13 13 12 13 13 13 14 14 14 14 14 13 13 13 12 12 11 11 11 11 11 11 11 11 11 11 11 11
16 17 17 17 17 15 14 14 14 13 13 13 13 12 12 12 13 12 13 13 13 13 14 14 14 14 14 14 13 13 12 12 11 11 11 11 11 11 11 11 11 11 11 11
17 15 15 16 16 14 13 13 13 13 13 12 12 12 12 12 12 12 13 13 13 13 14 14 14 14 14 14 14 13 13 12 12 11 11 11 11 11 11 11 11 10 10 10
17 15 15 16 16 14 13 13 13 12 12 12 12 12 12 12 12 12 12 13 13 13 14 14 14 15 15 14 14 14 13 13 12 12 11 11 11 11 10 10 10 10 10 10
16 15 16 17 16 16 15 13 13 12 12 12 12 12 12 12 12 12 12 12 13 13 14 14 15 15 15 15 14 14 14 13 13 12 12 11 11 10 10 10 9 9 9 9